| time (UTC) | temp F | wind direction | speed knots | gust knots | rain 1hr in | rain 24hr in | rain mn in | humidity % | barometer mb |
| 20260906225904 | 79 | 104 | 0.9 | 5.2 | 0.00 | 0.00 | 0.00 | 8 | 1016.0 |
| 20260906225404 | 79 | 214 | 4.3 | 7.8 | 0.00 | 0.00 | 0.00 | 8 | 1016.0 |
| 20260906224904 | 79 | 217 | 3.5 | 10.4 | 0.00 | 0.00 | 0.00 | 9 | 1016.0 |
| 20260906224404 | 79 | 244 | 3.5 | 7.0 | 0.00 | 0.00 | 0.00 | 8 | 1015.9 |
| 20260906223904 | 79 | 226 | 3.5 | 10.4 | 0.00 | 0.00 | 0.00 | 9 | 1015.9 |
| 20260906223404 | 79 | 234 | 3.5 | 13.0 | 0.00 | 0.00 | 0.00 | 8 | 1015.9 |
| 20260906222904 | 79 | 228 | 4.3 | 11.3 | 0.00 | 0.00 | 0.00 | 9 | 1015.9 |
| 20260906221904 | 79 | 242 | 5.2 | 11.3 | 0.00 | 0.00 | 0.00 | 8 | 1015.9 |
| 20260906221404 | 79 | 227 | 5.2 | 10.4 | 0.00 | 0.00 | 0.00 | 8 | 1015.9 |
| 20260906220904 | 79 | 224 | 5.2 | 7.8 | 0.00 | 0.00 | 0.00 | 8 | 1015.8 |
| 20260906220404 | 79 | 224 | 4.3 | 8.7 | 0.00 | 0.00 | 0.00 | 8 | 1015.7 |
| 20260906215904 | 79 | 223 | 7.8 | 13.9 | 0.00 | 0.00 | 0.00 | 8 | 1015.6 |
| 20260906214404 | 80 | 222 | 6.1 | 13.9 | 0.00 | 0.00 | 0.00 | 7 | 1015.7 |
| 20260906213904 | 80 | 224 | 5.2 | 13.0 | 0.00 | 0.00 | 0.00 | 6 | 1015.9 |
| 20260906213404 | 80 | 248 | 6.1 | 13.9 | 0.00 | 0.00 | 0.00 | 7 | 1016.0 |
| 20260906211904 | 80 | 205 | 6.1 | 12.2 | 0.00 | 0.00 | 0.00 | 5 | 1016.0 |
| 20260906211404 | 81 | 228 | 1.7 | 17.4 | 0.00 | 0.00 | 0.00 | 6 | 1016.2 |
| 20260906210904 | 81 | 232 | 7.8 | 18.2 | 0.00 | 0.00 | 0.00 | 5 | 1016.2 |
| 20260906210404 | 81 | 221 | 9.6 | 20.0 | 0.00 | 0.00 | 0.00 | 4 | 1016.3 |
| 20260906205904 | 81 | 218 | 2.6 | 14.8 | 0.00 | 0.00 | 0.00 | 6 | 1016.5 |
| 20260906205404 | 81 | 222 | 5.2 | 11.3 | 0.00 | 0.00 | 0.00 | 5 | 1016.5 |
| 20260906204404 | 81 | 227 | 8.7 | 13.9 | 0.00 | 0.00 | 0.00 | 4 | 1016.5 |
| 20260906203904 | 82 | 230 | 8.7 | 15.6 | 0.00 | 0.00 | 0.00 | 4 | 1016.4 |
| 20260906203404 | 82 | 230 | 8.7 | 14.8 | 0.00 | 0.00 | 0.00 | 4 | 1016.4 |
| 20260906202404 | 82 | 225 | 7.8 | 13.9 | 0.00 | 0.00 | 0.00 | 5 | 1016.4 |
| 20260906201904 | 82 | 252 | 3.5 | 12.2 | 0.00 | 0.00 | 0.00 | 5 | 1016.4 |
| 20260906201404 | 82 | 224 | 5.2 | 10.4 | 0.00 | 0.00 | 0.00 | 6 | 1016.4 |
| 20260906200904 | 82 | 222 | 5.2 | 15.6 | 0.00 | 0.00 | 0.00 | 5 | 1016.5 |
| 20260906200404 | 82 | 214 | 7.0 | 12.2 | 0.00 | 0.00 | 0.00 | 5 | 1016.5 |
| 20260906195904 | 82 | 221 | 5.2 | 11.3 | 0.00 | 0.00 | 0.00 | 5 | 1016.5 |
| 20260906195404 | 82 | 220 | 7.0 | 14.8 | 0.00 | 0.00 | 0.00 | 5 | 1016.5 |
| 20260906194904 | 81 | 235 | 5.2 | 10.4 | 0.00 | 0.00 | 0.00 | 5 | 1016.5 |
| 20260906194404 | 81 | 236 | 5.2 | 11.3 | 0.00 | 0.00 | 0.00 | 5 | 1016.6 |
| 20260906192904 | 81 | 228 | 7.8 | 10.4 | 0.00 | 0.00 | 0.00 | 4 | 1016.9 |
| 20260906192404 | 81 | 218 | 7.0 | 11.3 | 0.00 | 0.00 | 0.00 | 4 | 1017.1 |
| 20260906191904 | 81 | 235 | 3.5 | 13.0 | 0.00 | 0.00 | 0.00 | 5 | 1017.1 |
| 20260906191404 | 81 | 154 | 1.7 | 7.8 | 0.00 | 0.00 | 0.00 | 6 | 1017.2 |
| 20260906190904 | 80 | 199 | 1.7 | 6.1 | 0.00 | 0.00 | 0.00 | 6 | 1017.3 |
| 20260906190404 | 80 | 241 | 1.7 | 5.2 | 0.00 | 0.00 | 0.00 | 6 | 1017.3 |
| 20260906185905 | 80 | 192 | 1.7 | 7.0 | 0.00 | 0.00 | 0.00 | 7 | 1017.4 |
| 20260906185404 | 79 | 220 | 0.0 | 10.4 | 0.00 | 0.00 | 0.00 | 7 | 1017.5 |
| 20260906184904 | 79 | 221 | 5.2 | 10.4 | 0.00 | 0.00 | 0.00 | 8 | 1017.7 |
| 20260906184404 | 78 | 230 | 6.1 | 10.4 | 0.00 | 0.00 | 0.00 | 8 | 1017.7 |
| 20260906183904 | 78 | 214 | 7.8 | 12.2 | 0.00 | 0.00 | 0.00 | 8 | 1017.7 |
| 20260906183404 | 78 | 223 | 5.2 | 11.3 | 0.00 | 0.00 | 0.00 | 9 | 1017.8 |
| 20260906182904 | 78 | 229 | 2.6 | 10.4 | 0.00 | 0.00 | 0.00 | 10 | 1017.8 |
| 20260906182404 | 78 | 227 | 4.3 | 11.3 | 0.00 | 0.00 | 0.00 | 9 | 1017.9 |
| 20260906181904 | 78 | 213 | 5.2 | 14.8 | 0.00 | 0.00 | 0.00 | 10 | 1018.0 |
| 20260906181404 | 78 | 228 | 7.8 | 13.9 | 0.00 | 0.00 | 0.00 | 9 | 1018.2 |
| 20260906180904 | 77 | 212 | 3.5 | 7.8 | 0.00 | 0.00 | 0.00 | 11 | 1018.2 |
| 20260906180404 | 77 | 214 | 2.6 | 7.0 | 0.00 | 0.00 | 0.00 | 11 | 1018.4 |
| 20260906175904 | 76 | 215 | 0.9 | 5.2 | 0.00 | 0.00 | 0.00 | 14 | 1018.4 |
| 20260906175404 | 75 | 146 | 0.0 | 0.9 | 0.00 | 0.00 | 0.00 | 16 | 1018.5 |
| 20260906174904 | 75 | 148 | 0.9 | 2.6 | 0.00 | 0.00 | 0.00 | 16 | 1018.7 |
| 20260906174404 | 74 | 240 | 0.0 | 0.0 | 0.00 | 0.00 | 0.00 | 19 | 1018.7 |
| 20260906173904 | 73 | 243 | 0.0 | 1.7 | 0.00 | 0.00 | 0.00 | 20 | 1018.8 |
| 20260906172904 | 71 | 229 | 0.0 | 0.0 | 0.00 | 0.00 | 0.00 | 23 | 1019.0 |
| 20260906172404 | 70 | 230 | 0.0 | 0.0 | 0.00 | 0.00 | 0.00 | 22 | 1019.1 |
| 20260906171904 | 70 | 229 | 0.0 | 0.0 | 0.00 | 0.00 | 0.00 | 22 | 1019.2 |
| 20260906171404 | 69 | 229 | 0.0 | 1.7 | 0.00 | 0.00 | 0.00 | 27 | 1019.2 |
| 20260906170404 | 68 | 232 | 0.0 | 2.6 | 0.00 | 0.00 | 0.00 | 25 | 1019.4 |
| 20260906165904 | 68 | 219 | 0.0 | 2.6 | 0.00 | 0.00 | 0.00 | 26 | 1019.5 |
| 20260906165404 | 67 | 217 | 0.0 | 0.0 | 0.00 | 0.00 | 0.00 | 26 | 1019.5 |
| 20260906164904 | 66 | 216 | 0.0 | 0.0 | 0.00 | 0.00 | 0.00 | 28 | 1019.5 |
| 20260906164404 | 65 | 217 | 0.0 | 0.0 | 0.00 | 0.00 | 0.00 | 28 | 1019.7 |
| 20260906163904 | 65 | 219 | 0.0 | 0.0 | 0.00 | 0.00 | 0.00 | 30 | 1019.7 |
| 20260906163404 | 64 | 219 | 0.0 | 0.0 | 0.00 | 0.00 | 0.00 | 33 | 1019.8 |
| 20260906162904 | 63 | 219 | 0.0 | 0.0 | 0.00 | 0.00 | 0.00 | 32 | 1019.9 |
| 20260906162404 | 63 | 219 | 0.0 | 0.0 | 0.00 | 0.00 | 0.00 | 34 | 1020.0 |
| 20260906161904 | 62 | 219 | 0.0 | 0.0 | 0.00 | 0.00 | 0.00 | 34 | 1020.0 |
| 20260906160904 | 60 | 219 | 0.0 | 0.0 | 0.00 | 0.00 | 0.00 | 37 | 1020.2 |
| 20260906160404 | 59 | 219 | 0.0 | 0.0 | 0.00 | 0.00 | 0.00 | 38 | 1020.3 |
| 20260906155404 | 58 | 220 | 0.0 | 0.0 | 0.00 | 0.00 | 0.00 | 42 | 1020.4 |
| 20260906154404 | 55 | 220 | 0.0 | 0.0 | 0.00 | 0.00 | 0.00 | 44 | 1020.5 |
| 20260906153404 | 53 | 220 | 0.0 | 0.0 | 0.00 | 0.00 | 0.00 | 52 | 1020.7 |
| 20260906152904 | 52 | 220 | 0.0 | 0.0 | 0.00 | 0.00 | 0.00 | 54 | 1020.7 |
| 20260906150904 | 47 | 220 | 0.0 | 0.0 | 0.00 | 0.00 | 0.00 | 62 | 1020.9 |
| 20260906150404 | 45 | 219 | 0.0 | 0.0 | 0.00 | 0.00 | 0.00 | 66 | 1021.0 |
| 20260906145904 | 44 | 219 | 0.0 | 0.0 | 0.00 | 0.00 | 0.00 | 69 | 1021.0 |
| 20260906145404 | 43 | 219 | 0.0 | 0.0 | 0.00 | 0.00 | 0.00 | 71 | 1021.1 |
| 20260906144904 | 42 | 219 | 0.0 | 0.0 | 0.00 | 0.00 | 0.00 | 73 | 1021.1 |
| 20260906144404 | 42 | 219 | 0.0 | 0.0 | 0.00 | 0.00 | 0.00 | 73 | 1021.1 |
| 20260906143904 | 41 | 219 | 0.0 | 0.0 | 0.00 | 0.00 | 0.00 | 73 | 1021.2 |
| 20260906143404 | 41 | 219 | 0.0 | 0.0 | 0.00 | 0.00 | 0.00 | 73 | 1021.2 |
| 20260906142904 | 40 | 219 | 0.0 | 0.0 | 0.00 | 0.00 | 0.00 | 73 | 1021.2 |
| 20260906142404 | 40 | 219 | 0.0 | 0.0 | 0.00 | 0.00 | 0.00 | 73 | 1021.1 |
| 20260906141404 | 39 | 219 | 0.0 | 0.0 | 0.00 | 0.00 | 0.00 | 72 | 1021.2 |
| 20260906140405 | 39 | 219 | 0.0 | 0.0 | 0.00 | 0.00 | 0.00 | 72 | 1021.2 |
| 20260906135904 | 39 | 219 | 0.0 | 0.0 | 0.00 | 0.00 | 0.00 | 71 | 1021.2 |
| 20260906135404 | 39 | 219 | 0.0 | 0.0 | 0.00 | 0.00 | 0.00 | 71 | 1021.2 |
| 20260906134904 | 39 | 219 | 0.0 | 0.0 | 0.00 | 0.00 | 0.00 | 70 | 1021.2 |
| 20260906133904 | 39 | 219 | 0.0 | 0.0 | 0.00 | 0.00 | 0.00 | 69 | 1021.1 |
| 20260906133404 | 39 | 219 | 0.0 | 0.0 | 0.00 | 0.00 | 0.00 | 69 | 1021.1 |
| 20260906132404 | 39 | 219 | 0.0 | 0.0 | 0.00 | 0.00 | 0.00 | 68 | 1021.0 |
| 20260906131904 | 39 | 219 | 0.0 | 0.0 | 0.00 | 0.00 | 0.00 | 68 | 1021.0 |
| 20260906131403 | 39 | 219 | 0.0 | 0.0 | 0.00 | 0.00 | 0.00 | 68 | 1020.9 |
| 20260906130904 | 39 | 219 | 0.0 | 0.0 | 0.00 | 0.00 | 0.00 | 67 | 1021.0 |
| 20260906130404 | 39 | 219 | 0.0 | 0.0 | 0.00 | 0.00 | 0.00 | 67 | 1020.9 |
| 20260906125904 | 40 | 219 | 0.0 | 0.0 | 0.00 | 0.00 | 0.00 | 66 | 1020.9 |
| 20260906125404 | 40 | 219 | 0.0 | 0.0 | 0.00 | 0.00 | 0.00 | 66 | 1021.0 |
| 20260906124904 | 40 | 219 | 0.0 | 0.0 | 0.00 | 0.00 | 0.00 | 66 | 1020.9 |
| 20260906124404 | 40 | 219 | 0.0 | 0.0 | 0.00 | 0.00 | 0.00 | 66 | 1020.9 |
| 20260906123904 | 40 | 219 | 0.0 | 0.0 | 0.00 | 0.00 | 0.00 | 66 | 1020.7 |
| 20260906122904 | 41 | 219 | 0.0 | 0.0 | 0.00 | 0.00 | 0.00 | 65 | 1020.6 |
| 20260906122404 | 41 | 219 | 0.0 | 0.0 | 0.00 | 0.00 | 0.00 | 65 | 1020.6 |
| 20260906121904 | 41 | 219 | 0.0 | 0.0 | 0.00 | 0.00 | 0.00 | 65 | 1020.5 |
| 20260906121404 | 41 | 219 | 0.0 | 0.0 | 0.00 | 0.00 | 0.00 | 65 | 1020.5 |
| 20260906120904 | 41 | 219 | 0.0 | 0.0 | 0.00 | 0.00 | 0.00 | 64 | 1020.5 |
| 20260906120404 | 42 | 219 | 0.0 | 0.0 | 0.00 | 0.00 | 0.00 | 64 | 1020.6 |
| 20260906115904 | 42 | 219 | 0.0 | 0.0 | 0.00 | 0.00 | 0.00 | 64 | 1020.6 |
| 20260906115404 | 42 | 219 | 0.0 | 0.0 | 0.00 | 0.00 | 0.00 | 64 | 1020.6 |
| 20260906114904 | 42 | 219 | 0.0 | 0.0 | 0.00 | 0.00 | 0.00 | 63 | 1020.5 |
| 20260906114404 | 42 | 219 | 0.0 | 0.0 | 0.00 | 0.00 | 0.00 | 63 | 1020.4 |
| 20260906113905 | 42 | 219 | 0.0 | 0.0 | 0.00 | 0.00 | 0.00 | 63 | 1020.4 |
| 20260906113404 | 42 | 219 | 0.0 | 0.0 | 0.00 | 0.00 | 0.00 | 63 | 1020.4 |
| 20260906112904 | 42 | 219 | 0.0 | 0.0 | 0.00 | 0.00 | 0.00 | 63 | 1020.4 |
| 20260906112404 | 42 | 219 | 0.0 | 0.0 | 0.00 | 0.00 | 0.00 | 63 | 1020.5 |
| 20260906111904 | 42 | 220 | 0.0 | 0.0 | 0.00 | 0.00 | 0.00 | 63 | 1020.5 |
| 20260906111404 | 42 | 220 | 0.0 | 0.0 | 0.00 | 0.00 | 0.00 | 63 | 1020.5 |
| 20260906110905 | 42 | 220 | 0.0 | 0.0 | 0.00 | 0.00 | 0.00 | 63 | 1020.4 |
| 20260906105904 | 42 | 220 | 0.0 | 0.0 | 0.00 | 0.00 | 0.00 | 63 | 1020.4 |
| 20260906105404 | 43 | 220 | 0.0 | 0.0 | 0.00 | 0.00 | 0.00 | 63 | 1020.4 |
| 20260906104904 | 43 | 220 | 0.0 | 0.0 | 0.00 | 0.00 | 0.00 | 63 | 1020.4 |
| 20260906103904 | 43 | 220 | 0.0 | 0.0 | 0.00 | 0.00 | 0.00 | 63 | 1020.2 |
| 20260906103404 | 43 | 220 | 0.0 | 0.0 | 0.00 | 0.00 | 0.00 | 63 | 1020.2 |
| 20260906102904 | 43 | 220 | 0.0 | 0.0 | 0.00 | 0.00 | 0.00 | 63 | 1020.1 |
| 20260906102404 | 44 | 220 | 0.0 | 0.0 | 0.00 | 0.00 | 0.00 | 63 | 1020.1 |
| 20260906101904 | 44 | 220 | 0.0 | 0.0 | 0.00 | 0.00 | 0.00 | 62 | 1020.0 |
| 20260906101404 | 44 | 220 | 0.0 | 0.0 | 0.00 | 0.00 | 0.00 | 62 | 1020.1 |
| 20260906100904 | 44 | 220 | 0.0 | 0.0 | 0.00 | 0.00 | 0.00 | 63 | 1020.1 |
| 20260906100404 | 44 | 220 | 0.0 | 0.0 | 0.00 | 0.00 | 0.00 | 63 | 1020.1 |
| 20260906095904 | 44 | 220 | 0.0 | 0.0 | 0.00 | 0.00 | 0.00 | 63 | 1020.1 |
| 20260906095404 | 45 | 220 | 0.0 | 0.0 | 0.00 | 0.00 | 0.00 | 63 | 1020.1 |
| 20260906094904 | 45 | 220 | 0.0 | 0.0 | 0.00 | 0.00 | 0.00 | 63 | 1020.1 |
| 20260906094404 | 45 | 220 | 0.0 | 0.0 | 0.00 | 0.00 | 0.00 | 62 | 1020.0 |
| 20260906093904 | 45 | 220 | 0.0 | 0.0 | 0.00 | 0.00 | 0.00 | 62 | 1020.0 |
| 20260906092904 | 45 | 220 | 0.0 | 0.0 | 0.00 | 0.00 | 0.00 | 61 | 1019.9 |
| 20260906092404 | 45 | 220 | 0.0 | 0.0 | 0.00 | 0.00 | 0.00 | 60 | 1019.9 |
| 20260906091904 | 46 | 220 | 0.0 | 0.0 | 0.00 | 0.00 | 0.00 | 60 | 1019.9 |
| 20260906091404 | 46 | 220 | 0.0 | 0.0 | 0.00 | 0.00 | 0.00 | 60 | 1019.9 |
| 20260906090904 | 46 | 220 | 0.0 | 0.0 | 0.00 | 0.00 | 0.00 | 60 | 1020.0 |
| 20260906085904 | 46 | 220 | 0.0 | 0.0 | 0.00 | 0.00 | 0.00 | 58 | 1019.9 |
| 20260906085404 | 46 | 220 | 0.0 | 0.0 | 0.00 | 0.00 | 0.00 | 58 | 1019.9 |
| 20260906084904 | 46 | 220 | 0.0 | 0.0 | 0.00 | 0.00 | 0.00 | 58 | 1019.9 |
| 20260906084404 | 46 | 220 | 0.0 | 0.0 | 0.00 | 0.00 | 0.00 | 58 | 1019.9 |
| 20260906083904 | 46 | 220 | 0.0 | 0.0 | 0.00 | 0.00 | 0.00 | 57 | 1019.9 |
| 20260906083403 | 46 | 220 | 0.0 | 0.0 | 0.00 | 0.00 | 0.00 | 56 | 1019.8 |
| 20260906082904 | 46 | 220 | 0.0 | 0.0 | 0.00 | 0.00 | 0.00 | 56 | 1019.9 |
| 20260906082404 | 46 | 220 | 0.0 | 0.0 | 0.00 | 0.00 | 0.00 | 56 | 1019.9 |
| 20260906081404 | 47 | 220 | 0.0 | 0.0 | 0.00 | 0.00 | 0.00 | 55 | 1019.8 |
| 20260906080904 | 47 | 220 | 0.0 | 0.0 | 0.00 | 0.00 | 0.00 | 55 | 1019.8 |
| 20260906080404 | 47 | 220 | 0.0 | 0.0 | 0.00 | 0.00 | 0.00 | 55 | 1019.8 |
| 20260906074904 | 47 | 220 | 0.0 | 0.0 | 0.00 | 0.00 | 0.00 | 55 | 1019.7 |
| 20260906074404 | 47 | 220 | 0.0 | 0.0 | 0.00 | 0.00 | 0.00 | 54 | 1019.8 |
| 20260906073905 | 47 | 220 | 0.0 | 0.0 | 0.00 | 0.00 | 0.00 | 54 | 1019.8 |
| 20260906073404 | 47 | 220 | 0.0 | 0.0 | 0.00 | 0.00 | 0.00 | 53 | 1019.8 |
| 20260906072904 | 47 | 220 | 0.0 | 0.0 | 0.00 | 0.00 | 0.00 | 53 | 1019.7 |
| 20260906071404 | 47 | 220 | 0.0 | 0.0 | 0.00 | 0.00 | 0.00 | 53 | 1019.7 |
| 20260906070404 | 48 | 220 | 0.0 | 0.0 | 0.00 | 0.00 | 0.00 | 55 | 1019.7 |
| 20260906065904 | 48 | 220 | 0.0 | 0.0 | 0.00 | 0.00 | 0.00 | 53 | 1019.7 |
| 20260906065404 | 48 | 220 | 0.0 | 0.0 | 0.00 | 0.00 | 0.00 | 53 | 1019.6 |
| 20260906064405 | 48 | 220 | 0.0 | 0.0 | 0.00 | 0.00 | 0.00 | 53 | 1019.6 |
| 20260906062904 | 48 | 220 | 0.0 | 0.0 | 0.00 | 0.00 | 0.00 | 53 | 1019.7 |
| 20260906062404 | 48 | 220 | 0.0 | 0.0 | 0.00 | 0.00 | 0.00 | 52 | 1019.8 |
| 20260906061904 | 48 | 220 | 0.0 | 0.0 | 0.00 | 0.00 | 0.00 | 53 | 1019.7 |
| 20260906061404 | 49 | 220 | 0.0 | 0.0 | 0.00 | 0.00 | 0.00 | 52 | 1019.6 |
| 20260906060404 | 49 | 220 | 0.0 | 0.0 | 0.00 | 0.00 | 0.00 | 53 | 1019.6 |
| 20260906055904 | 49 | 220 | 0.0 | 0.0 | 0.00 | 0.00 | 0.00 | 53 | 1019.8 |
| 20260906055404 | 49 | 220 | 0.0 | 0.0 | 0.00 | 0.00 | 0.00 | 53 | 1019.6 |
| 20260906054904 | 49 | 220 | 0.0 | 0.0 | 0.00 | 0.00 | 0.00 | 53 | 1019.7 |
| 20260906054404 | 49 | 220 | 0.0 | 0.0 | 0.00 | 0.00 | 0.00 | 52 | 1019.7 |
| 20260906053904 | 49 | 220 | 0.0 | 0.0 | 0.00 | 0.00 | 0.00 | 53 | 1019.8 |
| 20260906053404 | 49 | 220 | 0.0 | 0.0 | 0.00 | 0.00 | 0.00 | 51 | 1019.8 |
| 20260906051904 | 49 | 220 | 0.0 | 0.0 | 0.00 | 0.00 | 0.00 | 52 | 1019.9 |
| 20260906050904 | 50 | 220 | 0.0 | 0.0 | 0.00 | 0.00 | 0.00 | 52 | 1019.9 |
| 20260906050404 | 50 | 220 | 0.0 | 0.0 | 0.00 | 0.00 | 0.00 | 51 | 1019.9 |
| 20260906045904 | 50 | 220 | 0.0 | 0.0 | 0.00 | 0.00 | 0.00 | 49 | 1020.0 |
| 20260906045404 | 50 | 220 | 0.0 | 0.0 | 0.00 | 0.00 | 0.00 | 47 | 1019.9 |
| 20260906044904 | 51 | 220 | 0.0 | 0.0 | 0.00 | 0.00 | 0.00 | 47 | 1019.9 |
| 20260906044404 | 51 | 220 | 0.0 | 0.0 | 0.00 | 0.00 | 0.00 | 48 | 1019.9 |
| 20260906043404 | 51 | 220 | 0.0 | 0.0 | 0.00 | 0.00 | 0.00 | 48 | 1019.9 |
| 20260906042904 | 52 | 220 | 0.0 | 0.0 | 0.00 | 0.00 | 0.00 | 46 | 1019.9 |
| 20260906042404 | 52 | 220 | 0.0 | 0.0 | 0.00 | 0.00 | 0.00 | 46 | 1019.9 |
| 20260906041904 | 52 | 220 | 0.0 | 0.0 | 0.00 | 0.00 | 0.00 | 46 | 1019.9 |
| 20260906041404 | 53 | 220 | 0.0 | 0.0 | 0.00 | 0.00 | 0.00 | 45 | 1019.9 |
| 20260906040904 | 53 | 220 | 0.0 | 0.0 | 0.00 | 0.00 | 0.00 | 44 | 1019.9 |
| 20260906035904 | 54 | 220 | 0.0 | 0.0 | 0.00 | 0.00 | 0.00 | 43 | 1019.7 |
| 20260906035405 | 54 | 220 | 0.0 | 0.0 | 0.00 | 0.00 | 0.00 | 43 | 1019.7 |
| 20260906034904 | 55 | 220 | 0.0 | 0.0 | 0.00 | 0.00 | 0.00 | 44 | 1019.7 |
| 20260906034404 | 55 | 220 | 0.0 | 0.0 | 0.00 | 0.00 | 0.00 | 41 | 1019.6 |
| 20260906033904 | 56 | 220 | 0.0 | 0.0 | 0.00 | 0.00 | 0.00 | 40 | 1019.6 |
| 20260906033404 | 56 | 220 | 0.0 | 0.0 | 0.00 | 0.00 | 0.00 | 41 | 1019.6 |
| 20260906032904 | 57 | 220 | 0.0 | 0.0 | 0.00 | 0.00 | 0.00 | 40 | 1019.5 |
| 20260906031904 | 58 | 220 | 0.0 | 0.0 | 0.00 | 0.00 | 0.00 | 36 | 1019.5 |
| 20260906031404 | 58 | 220 | 0.0 | 0.0 | 0.00 | 0.00 | 0.00 | 36 | 1019.5 |
| 20260906030904 | 59 | 220 | 0.0 | 0.0 | 0.00 | 0.00 | 0.00 | 36 | 1019.4 |
| 20260906030407 | 59 | 220 | 0.0 | 0.0 | 0.00 | 0.00 | 0.00 | 36 | 1019.3 |
| 20260906025405 | 60 | 220 | 0.0 | 0.0 | 0.00 | 0.00 | 0.00 | 32 | 1019.1 |
| 20260906024904 | 61 | 220 | 0.0 | 0.0 | 0.00 | 0.00 | 0.00 | 31 | 1019.0 |
| 20260906023904 | 63 | 220 | 0.0 | 0.0 | 0.00 | 0.00 | 0.00 | 31 | 1018.8 |
| 20260906023404 | 64 | 220 | 0.0 | 0.0 | 0.00 | 0.00 | 0.00 | 31 | 1018.6 |
| 20260906022904 | 65 | 220 | 0.0 | 0.0 | 0.00 | 0.00 | 0.00 | 32 | 1018.4 |
| 20260906022404 | 66 | 220 | 0.0 | 0.0 | 0.00 | 0.00 | 0.00 | 30 | 1018.3 |
| 20260906021904 | 67 | 220 | 0.0 | 0.0 | 0.00 | 0.00 | 0.00 | 27 | 1018.2 |
| 20260906021404 | 68 | 220 | 0.0 | 0.0 | 0.00 | 0.00 | 0.00 | 21 | 1018.1 |
| 20260906020404 | 69 | 220 | 0.0 | 0.0 | 0.00 | 0.00 | 0.00 | 19 | 1018.0 |
| 20260906014904 | 71 | 220 | 0.0 | 0.0 | 0.00 | 0.00 | 0.00 | 15 | 1017.8 |
| 20260906014404 | 72 | 220 | 0.0 | 0.0 | 0.00 | 0.00 | 0.00 | 15 | 1017.8 |
| 20260906013904 | 73 | 220 | 0.0 | 0.0 | 0.00 | 0.00 | 0.00 | 17 | 1017.8 |
| 20260906012904 | 75 | 220 | 0.0 | 0.0 | 0.00 | 0.00 | 0.00 | 15 | 1017.8 |
| 20260906012404 | 76 | 220 | 0.0 | 0.0 | 0.00 | 0.00 | 0.00 | 10 | 1017.8 |
| 20260906011904 | 77 | 220 | 0.0 | 0.0 | 0.00 | 0.00 | 0.00 | 13 | 1017.7 |
| 20260906011404 | 78 | 220 | 0.0 | 0.0 | 0.00 | 0.00 | 0.00 | 8 | 1017.7 |
| 20260906010904 | 78 | 220 | 0.0 | 0.0 | 0.00 | 0.00 | 0.00 | 5 | 1017.7 |
| 20260906005404 | 79 | 221 | 0.9 | 6.1 | 0.00 | 0.00 | 0.00 | 4 | 1017.6 |
| 20260906004904 | 79 | 229 | 0.0 | 4.3 | 0.00 | 0.00 | 0.00 | 4 | 1017.6 |
| 20260906003904 | 80 | 221 | 1.7 | 4.3 | 0.00 | 0.00 | 0.00 | 2 | 1017.7 |
| 20260906002904 | 80 | 234 | 1.7 | 7.8 | 0.00 | 0.00 | 0.00 | 2 | 1017.6 |
| 20260906002403 | 81 | 217 | 0.9 | 8.7 | 0.00 | 0.00 | 0.00 | 1 | 1017.6 |
| 20260906001904 | 81 | 220 | 0.9 | 4.3 | 0.00 | 0.00 | 0.00 | 2 | 1017.6 |
| 20260906001404 | 82 | 225 | 0.9 | 4.3 | 0.00 | 0.00 | 0.00 | 2 | 1017.6 |
| 20260906000904 | 82 | 225 | 6.1 | 14.8 | 0.00 | 0.00 | 0.00 | 1 | 1017.7 |
| 20260906000404 | 82 | 225 | 4.3 | 8.7 | 0.00 | 0.00 | 0.00 | 1 | 1017.7 |
| 20260905235404 | 83 | 231 | 1.7 | 8.7 | 0.00 | 0.00 | 0.00 | 1 | 1017.6 |
| 20260905234904 | 83 | 219 | 1.7 | 2.6 | 0.00 | 0.00 | 0.00 | 1 | 1017.7 |
| 20260905234404 | 83 | 213 | 0.9 | 5.2 | 0.00 | 0.00 | 0.00 | 1 | 1017.8 |
| 20260905233904 | 83 | 136 | 1.7 | 7.8 | 0.00 | 0.00 | 0.00 | 1 | 1017.7 |
| 20260905233403 | 83 | 147 | 1.7 | 7.0 | 0.00 | 0.00 | 0.00 | 1 | 1017.7 |
| 20260905232904 | 83 | 227 | 1.7 | 6.1 | 0.00 | 0.00 | 0.00 | 1 | 1017.7 |
| 20260905232404 | 83 | 229 | 4.3 | 10.4 | 0.00 | 0.00 | 0.00 | 1 | 1017.7 |
| 20260905231904 | 83 | 223 | 4.3 | 5.2 | 0.00 | 0.00 | 0.00 | 1 | 1017.7 |
| 20260905231404 | 83 | 223 | 2.6 | 7.8 | 0.00 | 0.00 | 0.00 | 1 | 1017.6 |
| 20260905230404 | 83 | 233 | 3.5 | 11.3 | 0.00 | 0.00 | 0.00 | 1 | 1017.6 |